TimeMST,TemperatureF,Dew PointF,Humidity,Sea Level PressureIn,VisibilityMPH,Wind Direction,Wind SpeedMPH,Gust SpeedMPH,PrecipitationIn,Events,Conditions,WindDirDegrees,DateUTC
12:53 AM,12.9,10.0,88,30.26,10.0,Calm,Calm,-,N/A,,Clear,0,2013-01-25 07:53:00
1:53 AM,15.1,12.0,88,30.26,10.0,South,4.6,-,N/A,,Clear,190,2013-01-25 08:53:00
2:53 AM,12.9,10.0,88,30.27,10.0,Calm,Calm,-,N/A,,Clear,0,2013-01-25 09:53:00
3:53 AM,12.0,9.0,88,30.25,10.0,Calm,Calm,-,N/A,,Clear,0,2013-01-25 10:53:00
4:53 AM,16.0,12.9,88,30.24,10.0,SW,3.5,-,N/A,,Clear,230,2013-01-25 11:53:00
5:53 AM,12.0,10.0,92,30.28,10.0,Variable,3.5,-,N/A,,Clear,0,2013-01-25 12:53:00
6:53 AM,6.1,3.0,87,30.32,10.0,South,3.5,-,N/A,,Clear,180,2013-01-25 13:53:00
7:53 AM,14.0,10.9,88,30.28,10.0,SSW,5.8,-,N/A,,Clear,200,2013-01-25 14:53:00
8:53 AM,17.1,14.0,88,30.29,10.0,Calm,Calm,-,N/A,,Clear,0,2013-01-25 15:53:00
9:53 AM,18.0,12.9,81,30.30,10.0,Calm,Calm,-,N/A,,Clear,0,2013-01-25 16:53:00
10:53 AM,24.1,18.0,77,30.30,10.0,Calm,Calm,-,N/A,,Clear,0,2013-01-25 17:53:00
11:53 AM,28.0,19.9,72,30.25,10.0,Calm,Calm,-,N/A,,Clear,0,2013-01-25 18:53:00
12:53 PM,34.0,21.9,61,30.22,10.0,Calm,Calm,-,N/A,,Clear,0,2013-01-25 19:53:00
1:53 PM,36.0,24.1,62,30.18,10.0,Calm,Calm,-,N/A,,Clear,0,2013-01-25 20:53:00
2:53 PM,37.0,25.0,62,30.17,10.0,Calm,Calm,-,N/A,,Clear,0,2013-01-25 21:53:00
3:53 PM,37.9,23.0,55,30.16,10.0,Calm,Calm,-,N/A,,Clear,0,2013-01-25 22:53:00
4:53 PM,33.1,25.0,72,30.15,10.0,Calm,Calm,-,N/A,,Clear,0,2013-01-25 23:53:00
5:53 PM,30.9,23.0,72,30.17,10.0,Calm,Calm,-,N/A,,Clear,0,2013-01-26 00:53:00
6:53 PM,21.0,17.1,85,30.22,10.0,Calm,Calm,-,N/A,,Clear,0,2013-01-26 01:53:00
7:53 PM,19.9,17.1,89,30.19,10.0,Calm,Calm,-,N/A,,Clear,0,2013-01-26 02:53:00
8:53 PM,19.0,16.0,88,30.18,10.0,Calm,Calm,-,N/A,,Partly Cloudy,0,2013-01-26 03:53:00
9:53 PM,19.0,17.1,92,30.16,10.0,SSE,3.5,-,N/A,,Clear,160,2013-01-26 04:53:00
10:53 PM,19.0,16.0,88,30.13,10.0,South,6.9,-,N/A,,Clear,180,2013-01-26 05:53:00
11:53 PM,19.0,15.1,85,30.12,10.0,SSW,8.1,-,N/A,,Clear,200,2013-01-26 06:53:00